Michigan City, IN

6:25 PM CST on January 20, 2017 (GMT -0600)
Michigan City Municipal

Weather History for KMGC - February, 2014

Change the Weather History Date:

Thursday, February 13, 2014

  Actual Average (KSBN) Record (KSBN)
Temperature  
Mean Temperature 19 °F -  
Max Temperature 32 °F 33 °F 65 °F (1938)
Min Temperature 6 °F 18 °F -16 °F (1905)
Degree Days  
Heating Degree Days 46    
Moisture  
Dew Point 10 °F    
Average Humidity 59    
Maximum Humidity 79    
Minimum Humidity 43    
Precipitation  
Precipitation 0.00 in - - ()
Sea Level Pressure  
Sea Level Pressure 29.76 in    
Wind  
Wind Speed 5 mph (South)    
Max Wind Speed 18 mph    
Max Gust Speed 26 mph    
Visibility 9 miles    
Events Snow    
Averages and records for this station are not official NWS values.
T = Trace of Precipitation, MM = Missing Value Source: NWS Daily Summary

Daily Weather History Graph

Daily Weather History Graph

Search for Another Location

Airport or City:

Trip Planner

Search our weather history database for the weather conditions in past years. The results will help you decide how hot, cold, wet, or windy it might be!

Date:

Astronomy

Feb. 13, 2014 Rise Set
Actual Time 6:45 AM CST 5:18 PM CST
Civil Twilight 6:16 AM CST 5:46 PM CST
Nautical Twilight 5:44 AM CST 6:19 PM CST
Astronomical Twilight 5:11 AM CST 6:51 PM CST
Moon 4:26 PM CST (2/13) 5:38 AM CST (2/13)
Length of Visible Light 11h 30m
Length of Day
10h 32m
Waxing Gibbous, 99% of the Moon is Illuminated
Feb 13
Waxing Gibbous
Feb 14
Full
Feb 22
Last Quarter
Mar 1
New
Mar 8
First Quarter

Hourly Weather History & Observations

Time (CST) Temp. Windchill Dew Point Humidity Pressure Visibility Wind Dir Wind Speed Gust Speed Precip Events Conditions
12:15 AM 15.8 °F - 3.2 °F 58% 30.02 in 10.0 mi Calm Calm - N/A   Clear
12:35 AM 17.6 °F - 3.2 °F 53% 30.02 in 10.0 mi Calm Calm - N/A   Mostly Cloudy
12:55 AM 17.6 °F - 3.2 °F 53% 30.01 in 10.0 mi Calm Calm - N/A   Overcast
1:15 AM 17.6 °F 12.3 °F 3.2 °F 53% 30.01 in 10.0 mi South 3.5 mph - N/A   Mostly Cloudy
1:35 AM 15.8 °F - 3.2 °F 58% 30.02 in 10.0 mi Calm Calm - N/A   Mostly Cloudy
1:55 AM 17.6 °F 12.3 °F 5.0 °F 58% 30.02 in 10.0 mi SSE 3.5 mph - N/A   Overcast
2:15 AM 17.6 °F 12.3 °F 5.0 °F 58% 30.02 in 10.0 mi South 3.5 mph - N/A   Overcast
2:35 AM 17.6 °F 12.3 °F 5.0 °F 58% 30.01 in 10.0 mi SSE 3.5 mph - N/A   Overcast
2:55 AM 17.6 °F 9.3 °F 5.0 °F 58% 29.99 in 10.0 mi South 5.8 mph - N/A   Mostly Cloudy
3:15 AM 17.6 °F 12.3 °F 3.2 °F 53% 29.98 in 10.0 mi South 3.5 mph - N/A   Scattered Clouds
3:35 AM 15.8 °F - 3.2 °F 58% 29.98 in 10.0 mi Calm Calm - N/A   Clear
3:55 AM 15.8 °F - 3.2 °F 58% 29.97 in 10.0 mi Calm Calm - N/A   Clear
4:15 AM 14.0 °F - 3.2 °F 62% 29.97 in 10.0 mi Calm Calm - N/A   Clear
4:35 AM 12.2 °F 6.1 °F 1.4 °F 62% 29.97 in 10.0 mi South 3.5 mph - N/A   Clear
4:55 AM 14.0 °F - 3.2 °F 62% 29.97 in 10.0 mi Calm Calm - N/A   Clear
5:15 AM 12.2 °F - 3.2 °F 67% 29.95 in 10.0 mi Calm Calm - N/A   Clear
5:35 AM 12.2 °F - 3.2 °F 67% 29.94 in 10.0 mi Calm Calm - N/A   Clear
5:55 AM 10.4 °F - 3.2 °F 73% 29.93 in 7.0 mi Calm Calm - N/A   Clear
6:15 AM 10.4 °F - 3.2 °F 73% 29.92 in 10.0 mi Calm Calm - N/A   Clear
6:35 AM 8.6 °F 2.0 °F 1.4 °F 73% 29.91 in 7.0 mi SE 3.5 mph - N/A   Clear
6:55 AM 10.4 °F - 1.4 °F 67% 29.90 in 10.0 mi Calm Calm - N/A   Clear
7:15 AM 6.8 °F - 1.4 °F 79% 29.91 in 7.0 mi Calm Calm - N/A   Clear
7:35 AM 10.4 °F 4.0 °F 3.2 °F 73% 29.90 in 7.0 mi SE 3.5 mph - N/A   Clear
7:55 AM 10.4 °F - 3.2 °F 73% 29.90 in 5.0 mi Calm Calm - N/A   Haze
8:15 AM 15.8 °F 8.6 °F 5.0 °F 62% 29.90 in 7.0 mi South 4.6 mph - N/A   Clear
8:35 AM 17.6 °F 10.7 °F 5.0 °F 58% 29.88 in 7.0 mi SSE 4.6 mph - N/A   Clear
8:55 AM 19.4 °F 11.5 °F 5.0 °F 54% 29.86 in 7.0 mi SSE 5.8 mph - N/A   Clear
9:15 AM 19.4 °F 9.5 °F 5.0 °F 54% 29.86 in 7.0 mi South 8.1 mph - N/A   Clear
9:35 AM 19.4 °F 10.4 °F 5.0 °F 54% 29.86 in 7.0 mi South 6.9 mph - N/A   Clear
9:55 AM 21.2 °F 12.6 °F 6.8 °F 54% 29.84 in 7.0 mi SSE 6.9 mph - N/A   Clear
10:15 AM 21.2 °F 12.6 °F 6.8 °F 54% 29.84 in 7.0 mi SSE 6.9 mph - N/A   Clear
10:35 AM 23.0 °F 14.7 °F 6.8 °F 50% 29.83 in 7.0 mi SSE 6.9 mph - N/A   Clear
10:55 AM 23.0 °F 12.4 °F 6.8 °F 50% 29.83 in 7.0 mi South 10.4 mph - N/A   Clear
11:15 AM 23.0 °F 13.9 °F 6.8 °F 50% 29.82 in 10.0 mi South 8.1 mph - N/A   Clear
11:35 AM 23.0 °F 11.1 °F 6.8 °F 50% 29.81 in 7.0 mi South 12.7 mph 17.3 mph N/A   Clear
11:55 AM 26.6 °F 18.2 °F 6.8 °F 43% 29.80 in 7.0 mi South 8.1 mph - N/A   Clear
12:15 PM 26.6 °F 18.2 °F 6.8 °F 43% 29.78 in 7.0 mi South 8.1 mph 17.3 mph N/A   Scattered Clouds
12:35 PM 28.4 °F 19.1 °F 8.6 °F 43% 29.75 in 10.0 mi SSE 10.4 mph 16.1 mph N/A   Scattered Clouds
12:55 PM 26.6 °F 16.8 °F 8.6 °F 47% 29.74 in 10.0 mi South 10.4 mph 19.6 mph N/A   Overcast
1:35 PM 26.6 °F 16.8 °F 8.6 °F 47% 29.72 in 10.0 mi South 10.4 mph 17.3 mph N/A   Overcast
1:55 PM 26.6 °F 18.2 °F 10.4 °F 51% 29.70 in 7.0 mi South 8.1 mph 17.3 mph N/A Snow Light Snow
2:15 PM 26.6 °F 19.1 °F 14.0 °F 59% 29.67 in 3.0 mi SSE 6.9 mph - N/A Snow Light Snow
2:35 PM 26.6 °F 16.2 °F 17.6 °F 69% 29.65 in 4.0 mi SSE 11.5 mph 16.1 mph N/A Snow Light Snow
2:55 PM 28.4 °F 19.1 °F 17.6 °F 64% 29.63 in 10.0 mi SSE 10.4 mph - N/A   Overcast
3:15 PM 28.4 °F 19.7 °F 14.0 °F 55% 29.61 in 10.0 mi SSE 9.2 mph - N/A   Scattered Clouds
3:35 PM 28.4 °F 21.2 °F 10.4 °F 47% 29.60 in 10.0 mi South 6.9 mph - N/A   Clear
3:55 PM 28.4 °F 19.7 °F 10.4 °F 47% 29.60 in 10.0 mi South 9.2 mph 16.1 mph N/A   Clear
4:15 PM 28.4 °F 21.2 °F 10.4 °F 47% 29.60 in 10.0 mi SSE 6.9 mph - N/A   Scattered Clouds
4:35 PM 28.4 °F 20.4 °F 8.6 °F 43% 29.60 in 10.0 mi South 8.1 mph - N/A   Scattered Clouds
4:55 PM 28.4 °F 21.2 °F 8.6 °F 43% 29.60 in 10.0 mi South 6.9 mph - N/A   Scattered Clouds
5:15 PM 28.4 °F 20.4 °F 10.4 °F 47% 29.61 in 7.0 mi South 8.1 mph - N/A   Overcast
5:35 PM 28.4 °F 19.1 °F 10.4 °F 47% 29.60 in 10.0 mi SSW 10.4 mph 17.3 mph N/A   Overcast
5:55 PM 28.4 °F 19.7 °F 12.2 °F 51% 29.60 in 10.0 mi SSW 9.2 mph - N/A   Overcast
6:15 PM 28.4 °F 19.1 °F 14.0 °F 55% 29.59 in 10.0 mi SSW 10.4 mph 16.1 mph N/A   Overcast
6:35 PM 30.2 °F 20.8 °F 14.0 °F 51% 29.58 in 10.0 mi SSW 11.5 mph - N/A   Overcast
6:55 PM 30.2 °F 21.9 °F 15.8 °F 55% 29.57 in 10.0 mi SSW 9.2 mph - N/A   Overcast
7:15 PM 30.2 °F 20.8 °F 17.6 °F 60% 29.56 in 10.0 mi SSW 11.5 mph - N/A   Overcast
7:35 PM 30.2 °F 21.9 °F 17.6 °F 60% 29.55 in 10.0 mi SSW 9.2 mph - N/A   Overcast
7:55 PM 30.2 °F 21.9 °F 19.4 °F 64% 29.54 in 10.0 mi SSW 9.2 mph - N/A   Overcast
8:15 PM 30.2 °F 21.9 °F 21.2 °F 69% 29.54 in 10.0 mi SSW 9.2 mph - N/A   Overcast
8:35 PM 30.2 °F 22.6 °F 21.2 °F 69% 29.53 in 10.0 mi SW 8.1 mph - N/A   Overcast
8:55 PM 32.0 °F 24.2 °F 23.0 °F 69% 29.52 in 10.0 mi SW 9.2 mph - N/A   Overcast
9:15 PM 32.0 °F 23.0 °F 23.0 °F 69% 29.52 in 10.0 mi SW 11.5 mph 23.0 mph N/A   Overcast
9:35 PM 32.0 °F 21.6 °F 23.0 °F 69% 29.51 in 10.0 mi SW 15.0 mph 20.7 mph N/A   Overcast
9:55 PM 32.0 °F 22.1 °F 23.0 °F 69% 29.51 in 10.0 mi West 13.8 mph 24.2 mph N/A   Overcast
10:15 PM 28.4 °F 16.6 °F 19.4 °F 69% 29.53 in 10.0 mi West 16.1 mph 24.2 mph N/A   Overcast
10:35 PM 28.4 °F 18.5 °F 19.4 °F 69% 29.53 in 10.0 mi West 11.5 mph 26.5 mph N/A   Overcast
10:55 PM 26.6 °F 13.4 °F 17.6 °F 69% 29.54 in 10.0 mi West 18.4 mph 25.3 mph N/A   Overcast
11:15 PM 26.6 °F 13.8 °F 17.6 °F 69% 29.54 in 10.0 mi West 17.3 mph 23.0 mph N/A   Overcast
11:35 PM 26.6 °F 13.8 °F 17.6 °F 69% 29.55 in 10.0 mi WNW 17.3 mph 23.0 mph N/A   Overcast
11:55 PM 26.6 °F 15.2 °F 17.6 °F 69% 29.56 in 10.0 mi WNW 13.8 mph 23.0 mph N/A   Overcast